SCP
0 0 0 0 0 0 0 0 0 0 0 1 0 0 0 0 0 0 0 0 0 0 0 0 0 0 1 1 1 0 0 0 0 0 0 0 0 0 0 0 0 0 0
0 0 0 0 0 0 0 0 0 0 1 1 0 0 0 0 0 0 0 0 0 0 0 0 0 0 0 0 0 0 0 0 0 0 0 0 0 0 0 0 0 0 0
0 0 0 0 0 0 0 0 0 0 1 0 0 0 0 0 0 0 0 0 0 0 0 0 0 0 0 0 0 0 0 0 0 0 0 0 0 0 0 0 0 0 0
0 0 0 0 0 0 0 0 0 0 0 0 0 0 0 0 0 0 0 0 0 0 0 0 0 0 0 0 0 0 0 0 0 0 0 0 0 0 0 0 0 0 0
0 0 0 0 0 0 0 0 0 0 0 0 0 0 0 0 0 0 0 0 0 0 0 0 0 0 0 0 0 0 0 0 0 0 0 0 0 0 0 0 0 0 0
0 0 0 0 0 0 0 0 0 0 0 0 0 0 0 0 0 0 0 0 0 0 0 0 0 0 0 0 0 0 0 0 0 0 0 0 0 0 0 0 0 0 0
0 0 0 0 0 0 0 0 0 0 0 0 0 0 0 0 0 0 0 0 0 0 0 0 0 0 0 0 0 0 0 0 0 0 0 0 0 0 0 0 0 0 0
0 0 0 0 0 0 0 0 0 0 0 0 0 0 0 0 0 0 0 0 0 0 0 0 0 0 0 0 0 0 0 0 0 0 0 0 0 0 0 0 0 0 0
0 0 0 0 0 0 0 0 0 0 0 0 0 0 0 0 0 0 0 0 0 0 0 0 0 0 0 0 0 0 0 0 0 0 0 0 0 0 0 0 0 0 0
0 0 0 0 0 0 0 0 0 0 0 0 0 0 0 0 0 0 0 0 0 0 0 0 0 0 0 0 0 0 0 0 0 0 0 0 0 0 0 0 0 0 0
0 0 0 0 0 0 0 0 0 0 0 0 0 0 0 0 0 0 0 0 0 0 0 0 0 0 0 0 0 0 0 0 0 0 0 0 0 0 0 0 0 0 0
0 0 0 0 0 0 0 0 0 0 0 0 0 0 0 0 0 0 0 0 0 0 0 0 0 0 0 0 0 0 0 0 0 0 0 0 0 0 0 0 0 0 0
0 0 0 0 0 0 0 0 0 0 0 0 0 0 0 0 0 0 0 0 0 0 0 0 0 0 0 0 0 0 0 0 0 0 0 0 0 0 0 0 0 0 0
0 0 0 0 0 0 0 0 0 0 0 0 0 0 0 0 0 0 0 0 0 0 0 0 0 0 0 0 0 0 0 0 0 0 0 0 0 0 0 0 0 0 0
0 0 0 0 0 0 0 0 0 0 0 0 0 0 0 0 0 0 0 0 0 0 0 0 0 0 0 0 0 0 0 0 0 0 0 0 0 0 0 0 0 0 0
0 0 0 0 0 0 0 0 0 0 0 0 0 0 0 0 0 0 0 0 0 0 0 0 0 0 0 0 0 0 0 0 0 0 0 0 0 0 0 0 0 0 0
0 0 0 0 0 0 0 0 0 0 0 0 0 0 0 0 0 0 0 0 0 0 0 0 0 0 0 0 0 0 0 0 0 0 0 0 0 0 0 0 0 0 0
0 0 0 0 0 0 0 0 0 0 0 0 0 0 0 0 0 0 0 0 0 0 0 0 0 0 0 0 0 0 0 0 0 0 0 0 0 0 0 0 0 0 0
0 0 0 0 0 0 0 0 0 0 0 0 0 0 0 0 0 0 0 0 0 0 0 0 0 0 0 0 0 0 0 0 0 0 0 0 0 0 0 0 0 0 0
0 0 0 0 0 0 0 0 0 0 0 0 0 0 0 0 0 0 0 0 0 0 0 0 0 0 0 0 0 0 0 0 0 0 0 0 0 0 0 0 0 0 0
0 0 0 0 0 0 0 0 0 0 0 0 0 0 0 0 0 0 0 0 0 0 0 0 0 0 0 0 0 0 0 0 0 0 0 0 0 0 0 0 0 0 0
0 0 0 0 0 0 0 0 0 0 0 0 0 0 0 0 0 0 0 0 0 0 0 0 0 0 0 0 0 -0 0 0 0 0 0 0 -0 -0 0 0 0 0 0
0 0 0 0 0 0 0 0 0 0 0 0 0 0 0 0 0 0 0 0 0 0 0 0 0 0 0 0 -0 0 -0 -0 0 -0 0 0 0 -0 -0 0 0 0 0
0 0 0 0 0 0 0 0 0 0 0 0 0 0 0 0 0 0 0 0 0 0 0 0 0 0 0 0 0 0 0 -0 0 0 0 0 0 -0 -0 0 0 0 0
0 0 0 0 0 0 0 0 0 0 0 0 0 0 0 0 0 0 0 0 0 -0 -0 0 0 0 0 0 0 0 0 -0 -0 -0 0 0 0 0 0 0 0 0 0
0 0 0 0 0 0 0 0 0 0 0 0 0 0 0 0 0 0 0 0 0 0 0 0 0 0 0 -0 -0 -0 -0 -0 -0 0 -0 0 0 0 0 0 0 0 0
Wind_Speed_500mb
35 45 54 61 65 63 61 54 44 40 39 48 55 57 58 56 52 58 52 54 48 51 55 51 46 55 63 62 67 67 72 67 78 67 71 59 75 70 57 55 50 50 56
51 53 57 62 60 60 63 60 52 50 48 56 61 59 64 63 59 54 57 57 64 63 53 59 55 62 62 61 72 78 76 76 74 77 70 70 68 61 57 41 57 72 57
48 49 60 65 62 60 62 63 64 56 53 55 56 60 60 59 60 55 50 52 52 60 65 67 69 68 63 81 84 84 83 76 58 58 68 29 25 36 45 54 55 50 52
50 48 55 62 62 58 61 65 62 56 55 54 54 56 57 54 51 49 43 41 42 48 54 59 63 74 76 70 64 51 40 45 71 31 37 32 19 26 36 51 45 33 42
36 48 52 56 61 59 56 56 57 55 54 53 54 55 56 55 50 38 26 24 27 32 30 23 31 22 33 27 23 27 38 45 44 32 21 19 29 37 59 74 69 61 55
13 33 47 56 58 57 51 49 43 35 33 35 33 36 40 40 34 34 30 24 33 32 23 30 33 45 42 33 37 38 36 40 46 45 40 40 45 51 57 63 66 73 81
14 16 33 46 48 45 45 41 32 28 25 22 19 19 18 14 8 8 14 14 16 17 21 23 24 31 39 41 41 45 45 50 55 47 49 54 59 55 56 60 66 75 87
29 25 22 29 28 26 27 29 25 20 21 21 22 17 13 9 3 6 11 16 20 25 24 22 28 37 35 38 38 39 44 46 42 53 53 48 43 47 53 58 60 70 72
46 46 44 42 39 38 40 37 38 40 32 26 16 8 3 2 9 15 21 26 21 20 21 25 25 25 31 33 36 38 40 43 46 47 47 47 48 54 56 58 58 54 49
66 68 69 68 66 62 57 51 43 35 25 19 12 8 3 5 9 14 17 17 20 24 27 23 28 33 36 37 40 43 45 46 48 50 53 57 62 62 66 65 66 62 64
73 72 68 62 55 50 44 40 34 31 26 22 17 11 7 4 5 8 11 12 17 21 27 32 32 36 39 43 46 47 49 52 54 55 58 60 62 66 64 65 65 63 61
68 65 64 63 59 54 48 43 35 30 26 21 15 11 9 7 7 8 13 19 24 29 34 39 42 42 42 42 46 49 49 48 48 51 53 55 56 57 56 54 54 53 51
73 72 69 64 58 50 44 38 30 24 17 10 6 3 2 6 11 15 21 26 29 34 36 39 41 42 43 45 45 46 45 45 47 51 53 53 54 54 52 51 54 55 57
67 64 59 52 49 41 35 28 23 19 15 10 6 3 6 12 18 24 29 34 36 38 37 36 36 39 43 44 43 43 44 46 47 47 47 49 50 51 52 55 56 59 65
58 53 50 44 38 31 25 20 16 13 13 10 9 13 18 25 28 31 34 35 34 31 32 34 33 32 31 31 32 34 37 41 46 45 44 45 46 48 51 59 65 65 70
50 43 39 33 29 23 19 16 14 13 15 19 23 25 27 28 31 34 34 31 27 28 27 26 27 28 27 28 30 36 42 42 40 42 44 51 53 52 56 58 53 57 66
42 37 31 25 18 12 10 10 13 17 21 25 27 27 29 27 27 27 21 18 21 21 22 24 25 26 26 29 34 39 42 44 41 47 51 55 54 54 53 50 52 57 58
36 29 21 13 8 11 16 19 22 25 27 28 27 27 24 21 22 14 13 17 19 26 27 27 31 34 33 33 34 37 41 42 43 43 38 45 53 52 57 61 60 60 64
25 18 10 7 12 17 22 23 23 25 25 24 23 16 15 17 13 10 15 18 19 23 29 33 36 33 29 29 34 37 38 37 37 34 40 50 61 57 55 63 74 78 81
16 8 6 12 18 20 18 18 21 20 19 21 15 9 11 12 6 12 12 13 17 20 28 32 31 37 34 27 26 35 37 37 37 39 48 50 48 49 50 61 58 57 65
7 5 9 15 19 17 18 17 16 14 17 18 16 12 11 9 3 9 7 11 14 19 32 30 32 23 25 27 26 29 38 41 41 45 45 43 43 44 47 48 57 72 74
13 15 15 17 20 19 16 16 16 19 20 16 12 12 11 9 4 2 7 10 13 19 31 32 27 18 25 23 23 27 32 34 32 31 31 40 48 48 45 53 51 66 64
20 19 19 21 22 21 22 21 22 21 21 17 13 9 8 5 8 3 7 7 10 18 28 35 33 28 25 24 30 35 37 37 24 28 37 41 44 49 57 60 68 68 61
27 25 24 23 26 25 24 24 26 24 22 18 13 8 5 2 8 3 5 7 9 17 25 32 38 34 37 32 32 37 32 31 23 32 47 50 53 56 62 71 81 84 76
28 26 27 28 28 26 25 25 28 27 24 21 16 8 3 4 5 4 5 6 12 17 25 32 35 36 37 36 30 32 26 29 30 40 40 39 57 68 73 76 84 86 85
28 27 28 25 25 24 24 26 27 28 29 25 20 11 3 5 6 6 8 10 13 15 22 29 28 27 27 30 24 20 14 25 30 42 45 52 61 71 78 80 83 87 86
Wind_Direction_500mb
216 219 221 226 232 235 232 228 225 227 238 233 222 227 227 224 236 240 237 259 252 252 254 253 253 257 246 256 262 258 251 259 264 275 273 272 275 268 269 269 266 261 264
225 220 219 223 223 228 229 230 240 245 240 235 233 233 233 234 246 250 257 263 265 266 257 262 258 252 263 266 266 267 259 265 266 265 281 282 279 272 264 257 272 262 261
221 215 215 221 226 226 228 233 242 241 236 235 239 241 240 245 253 251 268 264 256 255 266 269 266 255 257 274 278 279 266 273 248 267 263 261 266 276 237 255 274 265 260
232 228 218 215 220 225 229 230 234 238 233 234 239 245 252 254 261 268 276 274 273 277 275 268 268 267 270 271 279 266 248 252 268 262 280 257 257 283 295 276 286 277 265
236 229 220 221 221 228 232 235 237 236 237 238 242 247 253 262 262 274 277 293 280 282 273 277 270 255 297 273 264 259 269 265 267 268 263 264 273 265 270 275 278 281 275
216 218 222 228 226 228 230 234 232 230 234 238 245 243 242 252 258 258 244 273 272 274 276 266 256 251 272 255 261 262 261 254 253 261 268 274 264 271 265 259 267 274 278
107 176 201 214 222 222 225 228 220 210 213 227 226 231 239 254 267 271 274 307 296 295 289 285 267 270 261 269 268 263 254 248 248 253 263 265 260 253 259 264 267 271 274
97 111 143 176 185 184 186 196 182 171 155 151 140 136 137 156 111 332 332 333 319 309 294 277 278 282 277 273 268 259 258 255 250 248 257 256 250 253 260 265 271 278 275
102 108 119 127 130 134 132 140 139 130 125 117 110 109 108 323 311 312 310 311 314 303 302 299 296 288 288 287 290 284 276 272 270 269 266 265 268 268 271 273 275 276 287
106 111 113 115 117 119 120 121 124 123 116 122 130 145 172 261 289 299 294 287 285 290 290 295 288 288 285 285 285 280 280 280 279 277 276 276 274 278 277 281 281 280 279
113 112 111 111 111 111 110 107 105 108 108 102 98 89 71 28 0 342 312 307 295 290 300 300 292 289 290 290 290 291 289 287 286 285 285 285 284 284 287 285 287 285 284
118 115 111 109 108 105 103 100 96 95 91 81 67 53 36 13 345 323 312 315 310 310 307 310 311 310 307 303 301 300 299 297 297 297 296 297 299 298 298 296 293 292 296
120 118 116 112 110 108 107 104 101 89 81 69 52 28 349 317 309 311 309 312 314 313 315 314 315 314 311 310 310 307 305 304 304 305 305 305 304 304 302 302 300 300 297
122 119 116 112 108 105 99 94 90 84 77 65 53 3 331 321 321 314 313 317 319 320 321 319 319 318 319 317 310 306 303 303 305 306 308 308 307 304 304 302 303 302 299
121 116 112 109 106 104 96 87 79 66 48 16 352 345 340 330 322 317 317 320 324 325 326 325 324 323 323 321 316 316 313 308 306 311 314 315 312 310 311 309 306 303 298
120 115 113 110 106 97 80 55 36 13 355 331 329 326 321 313 310 312 318 325 329 336 338 341 336 336 328 321 321 319 320 319 325 328 323 320 319 314 306 304 303 303 301
119 118 112 103 92 70 40 355 343 335 323 324 321 319 317 314 315 325 330 336 349 355 351 345 344 339 329 320 319 315 317 324 325 322 325 332 343 337 328 319 307 303 307
124 120 110 90 49 1 339 328 324 321 320 318 314 312 310 312 325 344 358 3 16 356 349 348 343 335 331 324 326 329 332 328 327 333 342 342 342 344 338 331 323 315 307
119 110 89 24 346 333 330 331 328 328 329 328 327 314 310 332 360 30 24 24 12 357 359 351 340 339 342 338 336 338 343 358 13 7 354 351 339 334 328 319 315 312 315
115 89 21 350 334 332 338 332 334 343 346 345 337 321 341 342 28 33 35 8 7 3 360 356 3 0 1 7 4 6 2 11 11 357 358 353 341 337 335 331 333 323 333
90 16 2 357 354 350 349 0 10 9 9 355 337 323 326 340 66 30 352 349 356 351 357 6 10 21 19 21 15 17 10 7 2 359 359 0 7 5 355 343 338 333 344
62 47 30 30 26 25 31 34 21 14 1 348 331 318 320 328 148 10 316 336 348 344 354 11 18 24 20 39 21 4 355 352 360 6 17 26 26 21 8 356 357 3 13
70 63 53 52 49 41 32 24 17 6 356 345 336 314 315 327 162 271 314 316 334 352 357 13 15 20 11 18 19 14 8 8 18 37 43 35 30 26 20 22 21 25 21
67 62 60 55 45 39 31 22 11 7 1 356 347 337 320 288 188 288 295 313 352 345 1 8 15 14 9 11 8 16 14 21 46 61 54 42 38 32 29 28 32 34 28
66 59 52 48 43 38 32 20 14 16 13 6 359 339 274 193 192 208 226 292 324 332 343 355 359 359 7 7 356 352 16 36 34 49 43 31 32 32 30 32 33 34 37
60 55 46 43 38 36 29 22 16 17 14 9 8 359 332 196 196 184 233 270 294 319 326 332 339 346 357 3 346 353 37 59 56 53 42 39 35 32 27 26 32 37 39
Wind_Speed_850mb
35 45 54 61 65 63 61 54 44 40 39 48 55 57 58 56 52 58 52 54 48 51 55 51 46 55 63 62 67 67 72 67 78 67 71 59 75 70 57 55 50 50 56
51 53 57 62 60 60 63 60 52 50 48 56 61 59 64 63 59 54 57 57 64 63 53 59 55 62 62 61 72 78 76 76 74 77 70 70 68 61 57 41 57 72 57
48 49 60 65 62 60 62 63 64 56 53 55 56 60 60 59 60 55 50 52 52 60 65 67 69 68 63 81 84 84 83 76 58 58 68 29 25 36 45 54 55 50 52
50 48 55 62 62 58 61 65 62 56 55 54 54 56 57 54 51 49 43 41 42 48 54 59 63 74 76 70 64 51 40 45 71 31 37 32 19 26 36 51 45 33 42
36 48 52 56 61 59 56 56 57 55 54 53 54 55 56 55 50 38 26 24 27 32 30 23 31 22 33 27 23 27 38 45 44 32 21 19 29 37 59 74 69 61 55
13 33 47 56 58 57 51 49 43 35 33 35 33 36 40 40 34 34 30 24 33 32 23 30 33 45 42 33 37 38 36 40 46 45 40 40 45 51 57 63 66 73 81
14 16 33 46 48 45 45 41 32 28 25 22 19 19 18 14 8 8 14 14 16 17 21 23 24 31 39 41 41 45 45 50 55 47 49 54 59 55 56 60 66 75 87
29 25 22 29 28 26 27 29 25 20 21 21 22 17 13 9 3 6 11 16 20 25 24 22 28 37 35 38 38 39 44 46 42 53 53 48 43 47 53 58 60 70 72
46 46 44 42 39 38 40 37 38 40 32 26 16 8 3 2 9 15 21 26 21 20 21 25 25 25 31 33 36 38 40 43 46 47 47 47 48 54 56 58 58 54 49
66 68 69 68 66 62 57 51 43 35 25 19 12 8 3 5 9 14 17 17 20 24 27 23 28 33 36 37 40 43 45 46 48 50 53 57 62 62 66 65 66 62 64
73 72 68 62 55 50 44 40 34 31 26 22 17 11 7 4 5 8 11 12 17 21 27 32 32 36 39 43 46 47 49 52 54 55 58 60 62 66 64 65 65 63 61
68 65 64 63 59 54 48 43 35 30 26 21 15 11 9 7 7 8 13 19 24 29 34 39 42 42 42 42 46 49 49 48 48 51 53 55 56 57 56 54 54 53 51
73 72 69 64 58 50 44 38 30 24 17 10 6 3 2 6 11 15 21 26 29 34 36 39 41 42 43 45 45 46 45 45 47 51 53 53 54 54 52 51 54 55 57
67 64 59 52 49 41 35 28 23 19 15 10 6 3 6 12 18 24 29 34 36 38 37 36 36 39 43 44 43 43 44 46 47 47 47 49 50 51 52 55 56 59 65
58 53 50 44 38 31 25 20 16 13 13 10 9 13 18 25 28 31 34 35 34 31 32 34 33 32 31 31 32 34 37 41 46 45 44 45 46 48 51 59 65 65 70
50 43 39 33 29 23 19 16 14 13 15 19 23 25 27 28 31 34 34 31 27 28 27 26 27 28 27 28 30 36 42 42 40 42 44 51 53 52 56 58 53 57 66
42 37 31 25 18 12 10 10 13 17 21 25 27 27 29 27 27 27 21 18 21 21 22 24 25 26 26 29 34 39 42 44 41 47 51 55 54 54 53 50 52 57 58
36 29 21 13 8 11 16 19 22 25 27 28 27 27 24 21 22 14 13 17 19 26 27 27 31 34 33 33 34 37 41 42 43 43 38 45 53 52 57 61 60 60 64
25 18 10 7 12 17 22 23 23 25 25 24 23 16 15 17 13 10 15 18 19 23 29 33 36 33 29 29 34 37 38 37 37 34 40 50 61 57 55 63 74 78 81
16 8 6 12 18 20 18 18 21 20 19 21 15 9 11 12 6 12 12 13 17 20 28 32 31 37 34 27 26 35 37 37 37 39 48 50 48 49 50 61 58 57 65
7 5 9 15 19 17 18 17 16 14 17 18 16 12 11 9 3 9 7 11 14 19 32 30 32 23 25 27 26 29 38 41 41 45 45 43 43 44 47 48 57 72 74
13 15 15 17 20 19 16 16 16 19 20 16 12 12 11 9 4 2 7 10 13 19 31 32 27 18 25 23 23 27 32 34 32 31 31 40 48 48 45 53 51 66 64
20 19 19 21 22 21 22 21 22 21 21 17 13 9 8 5 8 3 7 7 10 18 28 35 33 28 25 24 30 35 37 37 24 28 37 41 44 49 57 60 68 68 61
27 25 24 23 26 25 24 24 26 24 22 18 13 8 5 2 8 3 5 7 9 17 25 32 38 34 37 32 32 37 32 31 23 32 47 50 53 56 62 71 81 84 76
28 26 27 28 28 26 25 25 28 27 24 21 16 8 3 4 5 4 5 6 12 17 25 32 35 36 37 36 30 32 26 29 30 40 40 39 57 68 73 76 84 86 85
28 27 28 25 25 24 24 26 27 28 29 25 20 11 3 5 6 6 8 10 13 15 22 29 28 27 27 30 24 20 14 25 30 42 45 52 61 71 78 80 83 87 86
Wind_Direction_850mb
216 219 221 226 232 235 232 228 225 227 238 233 222 227 227 224 236 240 237 259 252 252 254 253 253 257 246 256 262 258 251 259 264 275 273 272 275 268 269 269 266 261 264
225 220 219 223 223 228 229 230 240 245 240 235 233 233 233 234 246 250 257 263 265 266 257 262 258 252 263 266 266 267 259 265 266 265 281 282 279 272 264 257 272 262 261
221 215 215 221 226 226 228 233 242 241 236 235 239 241 240 245 253 251 268 264 256 255 266 269 266 255 257 274 278 279 266 273 248 267 263 261 266 276 237 255 274 265 260
232 228 218 215 220 225 229 230 234 238 233 234 239 245 252 254 261 268 276 274 273 277 275 268 268 267 270 271 279 266 248 252 268 262 280 257 257 283 295 276 286 277 265
236 229 220 221 221 228 232 235 237 236 237 238 242 247 253 262 262 274 277 293 280 282 273 277 270 255 297 273 264 259 269 265 267 268 263 264 273 265 270 275 278 281 275
216 218 222 228 226 228 230 234 232 230 234 238 245 243 242 252 258 258 244 273 272 274 276 266 256 251 272 255 261 262 261 254 253 261 268 274 264 271 265 259 267 274 278
107 176 201 214 222 222 225 228 220 210 213 227 226 231 239 254 267 271 274 307 296 295 289 285 267 270 261 269 268 263 254 248 248 253 263 265 260 253 259 264 267 271 274
97 111 143 176 185 184 186 196 182 171 155 151 140 136 137 156 111 332 332 333 319 309 294 277 278 282 277 273 268 259 258 255 250 248 257 256 250 253 260 265 271 278 275
102 108 119 127 130 134 132 140 139 130 125 117 110 109 108 323 311 312 310 311 314 303 302 299 296 288 288 287 290 284 276 272 270 269 266 265 268 268 271 273 275 276 287
106 111 113 115 117 119 120 121 124 123 116 122 130 145 172 261 289 299 294 287 285 290 290 295 288 288 285 285 285 280 280 280 279 277 276 276 274 278 277 281 281 280 279
113 112 111 111 111 111 110 107 105 108 108 102 98 89 71 28 0 342 312 307 295 290 300 300 292 289 290 290 290 291 289 287 286 285 285 285 284 284 287 285 287 285 284
118 115 111 109 108 105 103 100 96 95 91 81 67 53 36 13 345 323 312 315 310 310 307 310 311 310 307 303 301 300 299 297 297 297 296 297 299 298 298 296 293 292 296
120 118 116 112 110 108 107 104 101 89 81 69 52 28 349 317 309 311 309 312 314 313 315 314 315 314 311 310 310 307 305 304 304 305 305 305 304 304 302 302 300 300 297
122 119 116 112 108 105 99 94 90 84 77 65 53 3 331 321 321 314 313 317 319 320 321 319 319 318 319 317 310 306 303 303 305 306 308 308 307 304 304 302 303 302 299
121 116 112 109 106 104 96 87 79 66 48 16 352 345 340 330 322 317 317 320 324 325 326 325 324 323 323 321 316 316 313 308 306 311 314 315 312 310 311 309 306 303 298
120 115 113 110 106 97 80 55 36 13 355 331 329 326 321 313 310 312 318 325 329 336 338 341 336 336 328 321 321 319 320 319 325 328 323 320 319 314 306 304 303 303 301
119 118 112 103 92 70 40 355 343 335 323 324 321 319 317 314 315 325 330 336 349 355 351 345 344 339 329 320 319 315 317 324 325 322 325 332 343 337 328 319 307 303 307
124 120 110 90 49 1 339 328 324 321 320 318 314 312 310 312 325 344 358 3 16 356 349 348 343 335 331 324 326 329 332 328 327 333 342 342 342 344 338 331 323 315 307
119 110 89 24 346 333 330 331 328 328 329 328 327 314 310 332 360 30 24 24 12 357 359 351 340 339 342 338 336 338 343 358 13 7 354 351 339 334 328 319 315 312 315
115 89 21 350 334 332 338 332 334 343 346 345 337 321 341 342 28 33 35 8 7 3 360 356 3 0 1 7 4 6 2 11 11 357 358 353 341 337 335 331 333 323 333
90 16 2 357 354 350 349 0 10 9 9 355 337 323 326 340 66 30 352 349 356 351 357 6 10 21 19 21 15 17 10 7 2 359 359 0 7 5 355 343 338 333 344
62 47 30 30 26 25 31 34 21 14 1 348 331 318 320 328 148 10 316 336 348 344 354 11 18 24 20 39 21 4 355 352 360 6 17 26 26 21 8 356 357 3 13
70 63 53 52 49 41 32 24 17 6 356 345 336 314 315 327 162 271 314 316 334 352 357 13 15 20 11 18 19 14 8 8 18 37 43 35 30 26 20 22 21 25 21
67 62 60 55 45 39 31 22 11 7 1 356 347 337 320 288 188 288 295 313 352 345 1 8 15 14 9 11 8 16 14 21 46 61 54 42 38 32 29 28 32 34 28
66 59 52 48 43 38 32 20 14 16 13 6 359 339 274 193 192 208 226 292 324 332 343 355 359 359 7 7 356 352 16 36 34 49 43 31 32 32 30 32 33 34 37
60 55 46 43 38 36 29 22 16 17 14 9 8 359 332 196 196 184 233 270 294 319 326 332 339 346 357 3 346 353 37 59 56 53 42 39 35 32 27 26 32 37 39